Temperature
21 20 20 20 25 28 27 27 27 27 26 25 25 25 25 24 24 22 20 20 19 19 19 19 19 19 19 18 18 19 19 19 19 18 18 18 18 18 18 18 18 18 18 18 18 18 18 18 18
20 20 20 24 28 28 27 27 27 26 25 25 25 25 25 23 22 20 20 19 19 19 19 18 19 19 18 18 18 18 18 18 18 18 18 18 18 18 18 18 18 18 18 18 18 18 18 18 18
20 20 23 28 28 28 27 27 27 26 25 25 25 24 23 22 21 20 19 19 19 19 19 18 19 19 18 18 18 18 18 18 18 18 18 18 18 18 18 18 18 18 18 18 18 18 18 18 18
20 22 26 29 28 28 28 28 27 27 26 25 25 24 22 20 20 20 19 19 19 19 19 18 19 19 18 18 18 18 18 18 18 18 18 18 18 18 18 18 18 18 18 18 18 18 18 18 18
22 26 29 29 28 28 28 28 27 27 26 25 25 24 22 20 20 19 19 19 19 19 19 19 19 19 18 18 18 18 18 18 18 18 18 18 18 18 18 18 18 18 18 18 18 18 18 18 18
26 29 29 29 28 28 28 27 27 27 26 25 25 24 21 20 19 19 19 19 19 19 19 18 19 19 19 18 18 18 18 18 18 18 18 18 18 18 18 18 18 18 18 18 18 18 18 18 18
28 30 29 29 29 28 28 27 27 27 26 25 24 24 22 20 20 19 19 19 19 19 19 19 19 19 19 19 19 18 18 18 18 18 18 18 18 18 18 18 18 18 18 18 18 18 18 18 18
27 30 30 30 29 28 28 27 26 26 25 24 24 24 22 20 19 19 19 19 19 19 19 19 19 19 18 18 19 19 18 18 18 18 18 18 18 18 18 18 18 18 18 18 18 18 18 18 18
27 30 30 30 29 29 28 27 26 25 25 24 24 23 22 20 20 20 20 20 19 19 19 19 19 19 19 18 18 18 18 18 18 18 18 18 18 18 18 18 18 18 18 18 18 18 18 18 18
29 30 30 30 30 30 28 28 27 27 26 25 23 22 21 20 20 20 20 20 19 19 19 19 19 19 19 19 18 18 18 18 18 18 18 18 18 18 18 18 18 18 18 18 18 18 18 18 18
30 30 30 30 29 29 28 28 27 27 27 25 24 22 21 21 21 21 20 20 20 19 19 19 19 19 19 19 18 18 18 18 18 18 18 18 18 18 18 18 18 18 18 18 18 18 18 18 18
30 30 30 30 29 29 28 28 27 27 26 25 23 22 22 21 21 21 21 20 20 19 19 19 19 19 18 18 19 18 18 18 18 18 18 18 18 18 18 18 18 18 18 18 18 18 18 18 18
31 30 29 29 29 28 28 28 27 26 25 24 23 22 22 22 21 21 21 20 20 19 19 19 19 18 18 18 18 18 18 18 18 18 18 18 18 18 18 18 18 18 18 18 18 18 18 18 18
30 30 29 29 29 28 28 28 27 26 25 24 24 23 23 22 21 21 20 20 20 19 19 19 19 18 18 18 18 18 18 18 18 18 18 18 18 18 18 18 18 18 18 18 18 18 18 18 18
30 31 30 30 29 28 29 29 28 26 25 25 24 23 23 22 21 21 20 20 20 19 19 19 19 19 18 18 18 18 18 19 19 18 18 18 18 18 18 18 18 18 18 18 18 18 18 18 18
31 31 31 30 30 29 29 29 28 26 26 26 25 24 23 22 22 21 21 20 20 19 19 19 19 19 19 19 18 18 19 18 18 18 18 18 18 18 18 18 18 18 18 18 18 18 18 18 18
31 31 31 30 30 30 30 29 29 27 27 26 25 25 24 23 22 21 21 20 20 19 19 19 19 19 19 19 19 18 18 18 18 18 18 18 18 18 18 18 18 18 18 18 19 18 18 18 18
31 31 31 31 31 30 30 30 29 27 27 27 26 25 25 24 23 22 21 21 20 20 19 19 19 19 19 19 19 19 19 18 18 18 18 18 18 18 18 18 18 18 18 18 18 18 18 18 18
31 31 31 31 31 30 30 30 30 28 28 28 27 26 25 24 23 22 21 21 20 20 19 19 19 19 19 19 19 19 19 19 18 18 18 18 18 18 18 18 18 18 18 18 18 18 18 18 18
31 31 31 31 30 30 30 30 30 29 29 28 28 27 26 25 24 22 22 21 21 20 19 19 19 19 19 19 19 19 19 18 18 18 18 18 18 18 18 18 18 18 18 18 18 18 18 19 18
31 31 31 31 30 31 31 30 30 30 29 28 28 27 27 26 25 23 22 21 21 20 20 20 19 19 19 19 19 18 18 19 19 18 18 18 18 18 18 18 18 18 18 18 18 18 18 18 18
31 31 31 31 31 31 31 30 31 30 30 29 29 28 27 27 25 24 23 22 21 21 20 20 20 19 19 19 19 19 19 19 18 18 18 18 18 18 18 18 18 18 18 18 18 18 18 18 19
31 31 31 31 31 31 31 31 32 31 30 30 30 29 28 27 26 25 24 23 22 21 21 20 20 20 20 19 19 19 19 19 19 18 18 18 18 18 18 18 18 18 18 18 18 18 18 18 18
31 30 31 31 31 30 31 31 31 32 31 31 31 29 28 27 26 25 24 23 22 22 21 20 20 20 20 19 19 19 19 19 18 18 18 18 18 18 18 18 18 18 18 18 18 18 18 18 18
31 31 30 30 30 30 31 31 31 32 32 31 31 29 28 27 27 25 24 23 22 22 21 21 20 20 20 19 19 19 19 19 19 18 18 18 18 18 18 18 18 18 18 18 18 18 18 18 18
31 31 30 29 30 31 31 31 32 32 31 30 30 29 28 27 27 26 25 24 23 22 21 21 20 20 20 19 19 19 19 19 19 18 18 18 18 18 18 18 18 18 18 18 18 18 18 18 18
30 31 32 31 31 30 31 31 32 32 31 30 30 29 28 28 27 26 25 24 23 22 22 21 21 20 20 20 20 19 19 19 19 19 18 18 18 18 18 18 18 18 18 18 18 18 17 17 18
31 31 31 31 29 29 30 31 31 31 31 31 30 30 28 27 27 26 25 24 23 23 22 21 21 21 20 20 20 20 20 19 19 19 18 18 18 18 18 18 18 18 18 18 18 18 17 17 17
30 30 30 31 31 30 29 31 32 31 31 31 31 30 28 28 27 26 25 24 23 23 22 21 21 21 20 20 20 20 20 19 19 19 18 18 18 18 18 18 18 18 17 18 18 17 17 17 17
31 31 30 30 29 29 30 30 31 31 31 31 30 29 28 27 26 25 24 23 23 23 22 21 21 21 21 20 20 20 20 20 19 19 18 18 18 18 18 18 18 18 18 18 17 17 17 17 17
Wind_Speed
12 9 5 4 4 3 10 8 7 7 6 7 7 5 6 7 6 6 6 7 8 8 10 11 11 11 11 11 11 10 10 11 11 12 11 11 11 11 11 10 10 10 10 10 9 9 9 9 8
8 5 4 4 3 7 10 8 9 9 6 5 6 6 7 8 7 6 6 7 8 9 9 11 11 10 10 11 10 10 9 10 11 11 10 10 11 10 10 10 10 10 10 9 9 8 8 8 7
6 5 4 1 7 9 9 8 8 8 6 4 5 6 6 6 6 5 7 8 9 9 10 13 10 9 9 10 10 9 9 9 10 10 10 10 10 10 9 10 9 9 9 8 8 7 7 7 7
4 4 3 3 11 11 8 7 6 6 6 6 5 6 6 6 4 7 10 9 10 9 10 13 9 9 9 10 10 9 9 9 9 9 10 9 9 9 9 10 9 9 9 8 8 8 8 7 7
4 3 2 8 11 9 8 7 5 6 5 6 6 8 8 7 9 11 10 9 9 9 10 12 10 9 9 9 10 10 9 8 9 9 9 9 10 9 9 9 9 9 9 9 9 8 8 7 7
3 2 4 9 10 8 7 6 5 7 7 7 6 7 7 7 9 9 9 8 8 9 9 12 11 9 9 9 9 9 8 8 8 8 9 9 9 9 9 9 10 10 10 9 9 8 8 7 6
3 3 7 9 9 9 7 6 6 6 7 6 4 6 6 8 8 9 9 8 7 8 8 8 10 10 10 9 8 8 8 8 8 8 8 8 9 9 9 9 9 9 8 8 7 7 7 6 6
4 1 7 8 9 9 7 6 6 6 7 5 3 4 6 8 8 9 9 8 7 6 7 6 7 8 8 10 10 9 8 8 7 7 7 7 8 9 8 8 9 8 7 7 7 6 6 6 6
4 1 8 9 8 7 6 6 6 5 7 6 6 7 9 11 10 10 9 8 7 6 5 5 6 7 6 7 9 9 8 8 7 7 6 5 6 7 8 9 8 7 6 6 6 5 4 4 6
2 5 9 7 6 6 6 6 6 5 7 7 8 10 11 11 10 9 8 8 8 7 5 5 5 5 5 6 6 5 6 6 5 4 4 4 5 5 6 9 7 6 6 6 5 4 4 4 4
2 5 6 6 6 6 6 6 5 5 7 7 8 11 11 10 9 8 7 6 7 6 5 5 5 4 4 4 4 3 4 4 4 5 4 4 3 4 5 5 6 6 6 5 6 4 2 3 3
3 5 4 5 5 5 6 6 6 7 8 8 9 11 10 9 8 7 7 6 6 5 5 5 5 4 3 2 3 3 3 3 3 4 3 3 2 2 3 2 3 3 3 3 2 2 3 2 3
3 4 5 5 6 6 7 7 6 7 8 9 10 10 9 8 8 6 5 5 6 5 5 5 5 5 4 3 1 3 2 2 4 3 3 2 2 2 3 3 2 2 3 3 2 2 2 1 2
4 4 5 6 7 6 6 6 5 6 8 9 9 8 8 7 7 6 5 5 5 5 5 5 5 5 4 4 3 2 2 3 3 3 3 2 2 2 2 2 2 2 2 2 2 2 1 1 1
3 4 6 5 5 4 4 5 5 7 8 8 8 8 7 6 6 6 5 5 5 6 6 6 6 5 4 4 3 3 2 3 3 3 4 2 2 2 1 1 1 2 2 3 2 1 1 1 1
3 3 4 5 3 3 3 5 7 8 8 7 7 7 7 6 6 6 6 5 5 5 6 5 5 6 5 3 2 2 1 2 2 3 3 3 2 2 2 1 1 1 1 1 1 1 1 1 1
4 1 3 4 3 3 2 3 6 7 8 7 7 7 7 7 6 6 6 6 6 5 6 6 5 5 5 4 3 2 2 1 1 2 2 3 3 2 2 1 1 2 1 0 0 2 0 0 0
1 1 1 2 3 3 2 2 6 8 7 7 7 7 7 7 7 7 7 7 7 6 6 6 6 5 5 5 4 2 2 2 2 1 2 2 3 2 2 2 1 1 1 0 0 1 0 1 1
2 2 1 2 1 3 2 2 5 8 9 8 8 8 7 7 7 7 7 7 8 7 7 6 6 6 5 4 3 3 3 2 2 2 1 2 2 1 2 1 2 1 1 1 1 1 2 1 1
4 3 1 2 2 3 2 2 4 7 9 8 8 8 8 8 8 8 8 8 8 8 7 7 7 7 6 4 3 2 2 2 2 1 1 1 1 1 2 2 2 1 1 1 1 2 2 1 1
4 3 2 1 2 5 4 4 5 6 8 9 9 9 9 9 9 10 10 9 9 9 8 7 7 7 6 5 4 3 3 3 2 2 2 2 2 2 1 1 2 2 2 1 2 2 2 1 1
3 1 3 3 4 2 3 2 4 6 8 9 10 11 10 10 9 10 10 10 10 9 9 8 8 7 7 6 5 5 4 3 2 2 2 2 2 2 2 2 2 2 2 1 2 1 2 2 2
2 1 3 5 5 4 3 4 3 5 6 8 9 10 11 10 10 10 10 10 10 9 8 8 8 7 7 6 6 6 5 3 2 2 2 2 2 2 2 1 1 2 2 1 1 1 3 2 3
3 4 5 6 6 4 2 4 0 3 3 4 6 8 9 10 10 10 10 10 10 9 9 8 8 7 7 7 6 6 5 4 3 3 3 3 2 2 2 2 2 2 2 2 2 2 3 2 3
8 7 5 5 4 2 1 4 1 2 1 2 4 6 7 8 9 10 10 11 10 10 9 9 9 8 8 8 7 6 6 5 5 4 3 3 2 2 2 2 2 2 2 2 2 3 3 3 3
7 8 5 4 3 2 3 2 1 2 1 2 3 5 7 8 9 10 10 10 10 10 10 9 9 8 8 8 7 6 6 5 4 4 4 3 3 2 2 3 3 3 3 3 3 4 4 3 4
6 7 6 6 5 5 2 1 2 3 3 4 4 5 6 7 8 9 10 9 9 9 9 10 9 9 8 8 7 7 7 6 5 5 5 4 3 3 3 3 3 4 4 3 4 4 4 4 5
5 5 5 6 4 4 3 3 1 2 2 3 4 4 5 6 7 8 8 9 8 8 9 9 9 9 8 8 8 7 7 7 6 6 5 4 4 4 4 4 4 4 4 4 5 5 4 5 5
6 7 6 6 5 6 4 1 3 2 1 1 3 3 4 5 6 7 7 8 8 8 8 8 8 8 8 8 7 7 7 7 7 6 6 5 5 5 5 5 5 5 5 5 5 5 5 6 6
8 8 8 7 6 6 6 1 3 2 1 0 1 3 4 4 5 6 7 7 7 7 7 7 7 8 8 8 8 7 7 6 7 6 6 5 5 6 6 6 6 6 6 6 6 6 6 6 6
Wind_Direction
175 177 200 232 239 71 56 48 47 54 53 47 43 45 49 39 33 75 94 101 105 105 107 110 103 104 104 102 100 99 102 102 106 112 116 118 120 124 126 125 123 124 123 121 122 121 116 112 109
170 183 227 248 351 57 58 48 52 53 65 64 57 53 60 61 58 88 106 105 111 102 103 100 101 104 105 106 103 100 102 104 106 110 115 117 118 120 125 126 125 124 123 123 122 120 117 115 110
181 226 264 323 42 47 54 51 59 69 69 54 60 49 47 59 72 92 106 119 111 101 103 102 105 106 107 109 108 105 101 105 109 111 114 116 116 118 117 115 117 121 120 119 117 115 112 112 108
217 233 241 44 59 52 56 60 64 71 64 54 70 73 68 56 74 104 118 121 116 116 110 106 108 103 103 107 109 107 103 105 113 115 114 114 116 118 117 113 114 112 114 113 111 108 106 110 108
248 268 87 66 60 58 58 56 49 54 57 63 72 82 79 74 99 112 120 122 119 113 110 110 107 103 100 101 105 108 107 105 107 116 114 112 113 114 113 111 111 109 110 109 106 102 103 107 110
259 280 49 60 64 64 63 57 52 61 71 71 76 84 83 103 112 118 120 117 113 111 110 111 116 109 103 103 105 105 105 106 105 106 113 114 112 111 108 107 108 109 106 103 102 100 101 103 108
316 26 52 58 66 67 58 51 49 64 66 61 67 85 106 114 118 126 123 120 114 111 112 112 118 121 123 113 105 106 104 107 108 104 108 115 117 116 113 112 111 108 105 103 102 101 101 100 104
299 339 64 59 61 66 70 66 59 58 72 72 59 90 113 122 126 126 125 124 119 115 111 113 113 113 121 122 114 107 105 105 107 106 105 117 132 130 129 126 109 105 103 104 103 102 105 106 107
274 17 58 52 54 73 85 82 77 83 94 80 70 82 109 128 133 133 127 121 120 120 119 121 119 116 118 114 120 126 125 120 129 127 134 151 134 126 128 95 100 105 109 112 110 105 118 140 136
290 44 54 49 53 80 90 80 87 97 92 91 94 99 116 131 135 134 128 129 130 132 134 132 127 119 123 117 122 128 124 118 114 109 119 110 104 108 110 116 118 120 131 138 128 138 172 203 136
35 49 53 63 69 85 98 91 85 79 80 90 113 123 129 132 134 131 127 125 125 136 135 132 126 132 128 124 129 116 113 119 125 119 122 112 119 126 125 131 140 138 154 141 142 175 136 98 80
67 55 57 75 85 93 94 94 86 66 74 94 116 128 133 135 132 131 131 132 132 139 137 132 129 125 121 116 119 133 129 128 128 127 130 120 111 111 108 108 105 123 118 112 114 113 90 76 78
82 75 81 92 100 98 100 91 88 88 95 106 119 131 136 138 135 134 131 134 134 139 144 137 136 130 137 136 159 123 123 129 128 128 119 118 123 118 110 101 104 105 111 123 106 89 90 88 105
76 98 110 111 110 115 109 104 102 104 118 121 128 134 139 139 140 141 146 145 142 146 148 148 154 146 152 150 148 138 136 140 142 137 128 135 116 113 134 132 104 102 105 92 94 102 120 100 77
138 134 130 122 123 131 139 114 104 128 138 135 135 136 139 145 148 154 156 154 151 153 153 157 164 156 163 161 164 152 157 153 150 138 142 157 143 135 156 124 123 87 98 111 116 108 124 131 125
195 194 129 122 138 165 224 90 119 148 153 146 145 146 152 156 162 161 159 162 156 157 158 168 167 159 166 169 174 161 156 146 157 157 156 166 158 172 202 169 117 113 129 132 116 138 88 79 122
200 177 87 122 158 171 216 88 133 166 168 159 160 161 164 163 169 168 168 168 167 169 168 171 168 169 171 168 172 179 168 175 185 176 176 168 186 197 214 182 130 178 178 216 306 85 9 125 100
168 117 102 99 148 198 213 138 147 178 188 177 171 171 175 177 175 172 175 170 172 175 176 176 173 174 178 177 178 187 179 181 182 195 181 194 198 207 244 192 176 221 197 192 81 91 288 275 262
285 270 121 90 141 218 233 216 175 183 196 194 189 183 183 184 176 174 179 178 177 178 181 184 183 177 188 187 193 188 188 186 182 197 180 209 228 202 239 261 177 234 211 264 231 235 191 220 247
243 248 210 138 161 238 243 235 188 192 204 205 202 196 192 186 181 182 185 186 186 182 185 185 187 186 194 189 199 207 211 201 195 193 147 215 211 233 215 236 230 215 212 224 242 248 281 261 224
239 265 285 258 190 213 250 206 179 187 203 207 211 206 200 194 190 187 189 193 192 187 190 191 189 189 196 194 193 193 191 215 192 185 183 196 198 208 259 251 251 252 252 227 237 239 251 274 254
234 273 265 236 242 221 264 256 162 181 195 205 209 208 205 198 195 191 190 193 194 193 189 190 190 192 194 195 202 206 213 213 205 205 180 194 198 211 218 232 239 260 273 246 240 203 256 252 260
282 223 244 250 256 261 232 272 146 172 201 199 202 205 204 199 197 193 191 191 193 192 190 188 189 192 194 200 202 211 221 218 211 201 184 217 197 215 221 214 222 234 254 261 282 261 269 261 269
192 205 222 234 245 245 263 271 161 151 203 191 186 193 198 197 194 192 188 186 190 190 189 186 184 189 191 196 200 209 217 218 219 214 208 211 200 201 201 216 223 234 240 229 241 251 240 267 278
217 233 233 224 222 215 163 258 341 71 166 208 188 185 185 189 189 188 187 185 187 189 190 187 183 189 191 194 202 207 214 215 213 224 216 229 221 205 201 226 226 237 236 237 243 236 256 248 249
225 246 255 266 260 209 197 256 73 96 122 159 167 168 174 181 184 186 186 186 187 188 189 189 187 192 193 195 203 209 213 219 217 217 234 225 236 229 214 220 220 225 235 240 236 240 238 240 249
223 238 272 269 263 266 228 203 166 148 146 144 146 154 165 174 180 185 185 186 186 187 187 190 189 192 194 196 200 207 213 222 225 219 224 232 229 223 215 220 218 221 226 239 243 246 250 250 252
256 243 242 254 262 261 223 223 188 146 147 154 158 158 158 168 176 180 183 186 186 187 183 186 188 192 196 200 206 203 207 212 218 226 225 232 235 232 226 222 224 225 226 227 238 244 244 248 247
202 217 237 255 267 270 259 155 63 50 31 181 168 164 161 167 174 175 180 181 182 185 184 185 188 193 198 202 205 210 210 211 213 218 221 220 224 220 225 226 227 231 232 235 238 248 246 248 251
237 234 230 240 244 260 274 267 81 35 19 47 174 159 159 163 164 167 170 173 180 184 186 187 194 197 199 199 202 208 211 211 214 214 217 219 221 222 221 225 228 232 234 237 239 244 248 251 253
Height
1508 1508 1508 1510 1504 1498 1502 1502 1499 1500 1502 1505 1505 1504 1505 1506 1509 1518 1521 1519 1520 1521 1521 1520 1521 1521 1522 1522 1523 1524 1525 1526 1527 1527 1528 1529 1530 1531 1532 1532 1533 1534 1535 1536 1537 1538 1538 1538 1538
1509 1509 1511 1507 1498 1503 1507 1501 1502 1503 1506 1507 1507 1507 1507 1511 1515 1518 1520 1521 1522 1523 1523 1523 1523 1524 1524 1525 1526 1526 1527 1528 1529 1529 1530 1531 1531 1533 1534 1534 1535 1536 1537 1538 1539 1539 1539 1540 1539
1510 1510 1510 1500 1499 1504 1507 1502 1504 1506 1508 1508 1509 1510 1512 1515 1518 1520 1521 1522 1524 1524 1525 1525 1525 1526 1527 1527 1528 1529 1529 1530 1531 1531 1532 1533 1534 1534 1535 1536 1537 1537 1538 1539 1540 1540 1541 1541 1541
1512 1512 1508 1500 1502 1502 1502 1503 1504 1506 1508 1509 1509 1512 1516 1519 1520 1522 1523 1524 1526 1527 1528 1527 1527 1528 1529 1530 1530 1531 1531 1532 1533 1533 1534 1535 1536 1536 1537 1538 1538 1539 1540 1541 1541 1542 1542 1542 1542
1513 1508 1501 1500 1502 1503 1503 1505 1506 1506 1509 1510 1511 1514 1519 1522 1522 1523 1525 1527 1528 1529 1530 1530 1529 1530 1531 1532 1532 1533 1533 1534 1534 1535 1536 1537 1537 1538 1539 1539 1540 1541 1542 1542 1543 1543 1543 1543 1543
1511 1503 1501 1505 1505 1503 1505 1508 1507 1507 1510 1512 1513 1515 1521 1524 1524 1526 1527 1529 1530 1531 1532 1532 1531 1533 1533 1534 1535 1535 1535 1536 1536 1537 1537 1538 1539 1540 1540 1541 1542 1542 1543 1544 1544 1544 1544 1544 1544
1510 1500 1502 1502 1505 1505 1507 1509 1508 1510 1512 1514 1516 1517 1522 1525 1526 1527 1528 1530 1531 1532 1533 1534 1535 1535 1535 1536 1537 1537 1537 1538 1538 1539 1540 1540 1541 1542 1542 1543 1543 1544 1545 1545 1545 1545 1545 1545 1545
1510 1501 1500 1501 1504 1507 1509 1511 1512 1512 1515 1518 1518 1518 1522 1525 1526 1527 1529 1531 1532 1534 1535 1536 1537 1538 1539 1539 1539 1539 1539 1540 1540 1541 1541 1542 1543 1543 1544 1545 1545 1545 1546 1546 1546 1546 1547 1546 1546
1510 1502 1503 1503 1504 1507 1509 1511 1514 1516 1517 1518 1519 1520 1523 1526 1527 1529 1530 1532 1534 1535 1536 1537 1539 1539 1540 1541 1541 1541 1541 1541 1542 1543 1543 1544 1545 1546 1546 1546 1546 1547 1547 1547 1548 1548 1548 1548 1548
1507 1503 1505 1504 1504 1506 1510 1512 1514 1515 1516 1519 1521 1524 1525 1527 1528 1530 1531 1533 1535 1536 1538 1539 1540 1541 1542 1543 1543 1544 1544 1544 1544 1544 1545 1546 1546 1546 1547 1547 1548 1548 1548 1549 1549 1549 1549 1549 1550
1506 1505 1505 1506 1508 1509 1511 1513 1515 1513 1515 1519 1522 1525 1527 1529 1530 1531 1533 1534 1536 1537 1539 1540 1541 1541 1543 1544 1544 1545 1545 1545 1545 1545 1546 1546 1547 1548 1549 1549 1550 1550 1550 1551 1550 1551 1552 1552 1551
1507 1507 1508 1508 1510 1510 1512 1514 1516 1516 1519 1522 1524 1526 1528 1530 1531 1533 1534 1536 1537 1538 1539 1541 1541 1542 1543 1544 1545 1546 1546 1546 1547 1547 1547 1548 1548 1549 1550 1550 1551 1551 1551 1551 1552 1552 1552 1552 1551
1507 1508 1510 1511 1512 1513 1514 1515 1517 1519 1522 1524 1526 1528 1529 1531 1532 1534 1535 1537 1538 1539 1540 1541 1542 1542 1543 1543 1545 1546 1547 1548 1548 1548 1548 1549 1550 1550 1551 1551 1551 1552 1552 1552 1552 1552 1552 1552 1552
1509 1509 1510 1512 1513 1514 1514 1516 1518 1521 1523 1525 1527 1529 1530 1532 1533 1535 1536 1537 1538 1539 1540 1541 1542 1542 1543 1544 1544 1546 1547 1547 1548 1549 1549 1549 1551 1551 1551 1552 1552 1552 1553 1553 1552 1552 1552 1552 1552
1510 1508 1509 1511 1512 1514 1514 1515 1517 1521 1524 1525 1527 1529 1531 1533 1534 1535 1536 1537 1538 1539 1540 1541 1542 1543 1544 1544 1545 1547 1547 1548 1549 1549 1549 1550 1551 1551 1552 1553 1553 1553 1553 1552 1552 1552 1553 1552 1552
1507 1504 1507 1509 1511 1514 1514 1517 1517 1521 1523 1525 1527 1529 1531 1533 1534 1535 1537 1537 1539 1540 1540 1541 1543 1543 1543 1544 1545 1547 1548 1548 1549 1550 1550 1550 1551 1551 1552 1553 1553 1552 1553 1553 1553 1553 1553 1553 1553
1504 1507 1508 1509 1509 1511 1511 1513 1517 1520 1521 1523 1526 1528 1530 1532 1534 1535 1536 1537 1538 1539 1540 1541 1542 1543 1544 1545 1545 1546 1547 1548 1549 1549 1550 1550 1551 1551 1552 1552 1552 1552 1553 1553 1553 1552 1553 1553 1553
1508 1507 1508 1508 1507 1509 1509 1510 1513 1518 1520 1521 1524 1527 1529 1531 1533 1535 1536 1537 1538 1539 1540 1541 1542 1542 1544 1545 1545 1546 1547 1548 1548 1549 1550 1550 1551 1551 1551 1552 1551 1552 1552 1552 1552 1551 1551 1552 1552
1503 1505 1507 1507 1506 1508 1508 1508 1509 1515 1517 1519 1521 1524 1527 1529 1532 1534 1535 1536 1537 1538 1539 1540 1541 1542 1543 1544 1545 1546 1547 1548 1548 1549 1549 1549 1550 1550 1550 1551 1551 1551 1552 1551 1552 1551 1552 1552 1551
1503 1506 1506 1506 1506 1507 1507 1507 1506 1510 1514 1516 1519 1522 1524 1527 1530 1532 1533 1535 1536 1537 1538 1539 1540 1541 1542 1544 1544 1545 1546 1547 1548 1548 1548 1548 1549 1549 1550 1549 1551 1551 1550 1550 1550 1550 1551 1552 1551
1503 1504 1505 1507 1506 1504 1505 1507 1505 1507 1511 1514 1516 1518 1521 1524 1526 1529 1531 1533 1535 1536 1537 1538 1539 1540 1541 1542 1544 1545 1545 1546 1547 1547 1548 1548 1548 1548 1548 1549 1549 1549 1550 1550 1549 1549 1550 1551 1551
1506 1503 1503 1504 1506 1505 1506 1512 1503 1502 1506 1509 1512 1514 1517 1520 1523 1526 1529 1531 1533 1534 1536 1537 1538 1539 1540 1541 1543 1544 1545 1546 1546 1547 1547 1547 1547 1547 1547 1548 1548 1548 1549 1548 1549 1549 1549 1549 1550
1504 1503 1503 1502 1503 1505 1503 1507 1501 1499 1502 1502 1506 1509 1513 1516 1520 1523 1526 1528 1531 1533 1534 1535 1536 1537 1538 1540 1541 1542 1544 1545 1546 1546 1546 1546 1546 1546 1546 1546 1547 1547 1547 1547 1547 1547 1548 1549 1549
1503 1504 1503 1501 1500 1514 1506 1508 1506 1495 1498 1498 1501 1506 1510 1513 1517 1520 1524 1526 1529 1531 1532 1534 1534 1535 1537 1538 1539 1540 1542 1543 1544 1544 1544 1545 1545 1545 1545 1545 1545 1546 1546 1546 1546 1546 1547 1547 1547
1503 1506 1515 1517 1516 1514 1501 1506 1503 1493 1494 1497 1499 1504 1508 1511 1514 1518 1521 1524 1526 1528 1530 1532 1533 1534 1535 1536 1538 1539 1540 1541 1541 1542 1543 1543 1544 1544 1544 1544 1544 1544 1545 1545 1545 1545 1545 1545 1545
1500 1501 1515 1525 1520 1508 1503 1505 1495 1492 1495 1498 1500 1502 1506 1509 1512 1516 1519 1522 1524 1526 1528 1530 1531 1532 1533 1535 1536 1537 1538 1539 1540 1540 1541 1542 1542 1543 1542 1542 1542 1543 1543 1544 1543 1544 1544 1543 1543
1501 1499 1494 1502 1507 1511 1504 1499 1492 1492 1495 1497 1499 1501 1504 1507 1510 1514 1517 1519 1522 1524 1526 1527 1529 1530 1531 1533 1534 1535 1536 1537 1538 1538 1539 1540 1540 1541 1541 1541 1541 1541 1541 1541 1542 1542 1542 1542 1542
1497 1495 1500 1503 1520 1521 1511 1504 1498 1493 1494 1495 1498 1500 1503 1506 1509 1512 1515 1517 1520 1522 1524 1525 1526 1528 1529 1531 1532 1533 1533 1534 1535 1536 1537 1537 1537 1538 1538 1539 1539 1539 1540 1539 1539 1540 1539 1539 1539
1502 1501 1501 1500 1502 1516 1519 1506 1490 1493 1494 1494 1496 1499 1502 1505 1507 1510 1513 1515 1517 1520 1522 1523 1524 1525 1527 1528 1529 1530 1531 1532 1532 1533 1534 1534 1535 1535 1536 1536 1537 1537 1538 1537 1537 1538 1537 1537 1537
1494 1495 1498 1508 1511 1508 1509 1505 1490 1492 1493 1495 1496 1499 1502 1504 1506 1509 1511 1513 1515 1517 1519 1521 1522 1523 1524 1525 1526 1527 1528 1529 1530 1530 1531 1531 1532 1532 1533 1533 1534 1534 1535 1535 1535 1534 1535 1535 1534